Regional Weather Roundup
Issued by NWS Sterling, VA

Home | Current Version | Previous Version | Graphics & Text | Print | Product List | Glossary On
Versions: 1 2 3 4 5 6 7 8 9 10 11 12 13 14 15 16 17 18 19 20 21 22 23 24 25 26 27 28 29 30 31 32 33 34 35 36 37 38 39 40 41 42 43 44 45 46 47 48 49 50
479
ASUS41 KLWX 241210
RWRLWX

REGIONAL WEATHER ROUNDUP
NATIONAL WEATHER SERVICE BALTIMORE MD/WASHINGTON DC
800 AM EDT TUE MAY 24 2016

Note: "FAIR" indicates few or no clouds below 12,000 feet
with no significant weather and/or obstructions to visibility.
 TC=TEMPERATURE CELSIUS

 * =Non NWS site. Station does not report precipitation (e.g. rain,
    snow, etc.), thunder, or fog.

DCZ001-MDZ009-015-VAZ040>042-051-053>054-241300-
WASHINGTON METRO

CITY           SKY/WX    TMP DP  RH WIND       PRES   REMARKS
WASHINGTON NAT FAIR      65  55  70 NW8       29.99R
DULLES         FAIR      60  55  83 CALM      30.00R
ANDREWS AFB    SUNNY     63  55  74 W15       29.97R
FT BELVOIR     FAIR      64  56  76 NW6       29.99R
QUANTICO       FAIR      61  57  87 NW7       30.00R
LEESBURG*      FAIR      66  55  68 N3        30.02R
MANASSAS*      SUNNY     57  57 100 SW3       30.01R

$$

MDZ006>007-011-014-241300-
BALTIMORE METRO

CITY           SKY/WX    TMP DP  RH WIND       PRES   REMARKS
BWI AIRPORT    PTSUNNY   63  54  72 W10       29.95R
MD SCIENCE CTR   N/A     65  52  62 MISG      29.97R
MARTIN STATE   PTSUNNY   61  57  88 NW3       29.96R
ANNAPOLIS      SUNNY     61  54  77 NW7       29.95R
FORT MEADE*    SUNNY     57  55  94 W5        29.98R

$$

MDZ012-015-019>023-241300-
MARYLAND EASTERN SHORE

CITY           SKY/WX    TMP DP  RH WIND       PRES   REMARKS
OCEAN CITY     CLOUDY    60  57  89 W6        29.95R
SALISBURY      MOSUNNY   60  58  92 SW5       29.95R
CAMBRIDGE*       N/A     59  55  88 W3        29.95R
EASTON*        PTSUNNY   63  61  94 W6        29.98R

$$

MDZ017>025-241300-
SOUTHERN MARYLAND

CITY           SKY/WX    TMP DP  RH WIND       PRES   REMARKS
PATUXENT RIVER MOSUNNY   63  55  75 W10       29.97R
ST INIGOES     MOSUNNY   61  57  87 W6        29.97R
LEONARDTOWN*   MOSUNNY   59  55  88 W5        29.99R

$$

MDZ003>005-241300-
NORTH CENTRAL MARYLAND

CITY           SKY/WX    TMP DP  RH WIND       PRES   REMARKS
FREDERICK*     SUNNY     63  61  94 CALM      30.02R
HAGERSTOWN APT SUNNY     57  53  86 SE3       30.03R
WESTMINSTER*   MOSUNNY   59  39  47 NW6       29.98R

$$

MDZ501>502-241300-
WESTERN MARYLAND

CITY           SKY/WX    TMP DP  RH WIND       PRES   REMARKS
OAKLAND*       NOT AVBL
CUMBERLAND*    SUNNY     54  54 100 CALM      30.10R

$$

VAZ025>031-241300-
SHENANDOAH VALLEY

CITY           SKY/WX    TMP DP  RH WIND       PRES   REMARKS
WINCHESTER*    FAIR      59  55  88 SW3       30.03R
FRONT ROYAL*   FAIR      59  54  82 S8        30.03R
LURAY*         FAIR      59  57  94 CALM      30.06R
NEW MARKET*    FAIR      58  53  85 SW6       30.05R
STAUNTON*      FAIR      60  58  96 S5        30.10R
WAYNESBORO*    CLOUDY    60  53  77 SW6       30.09R

$$

WVZ021-048>050-054>055-241300-
EASTERN WEST VIRGINIA PANHANDLE

CITY           SKY/WX    TMP DP  RH WIND       PRES   REMARKS
MARTINSBURG    FAIR      56  54  93 CALM      30.02R
PETERSBURG*    FAIR      57  55  94 CALM      30.09R

$$

VAZ036>039-050-241300-
CENTRAL FOOTHILLS

CITY           SKY/WX    TMP DP  RH WIND       PRES   REMARKS
CHARLOTTESVILL CLOUDY    63  54  72 CALM      30.03R
CULPEPER*      FAIR      59  58  97 CALM      30.03R
ORANGE*        FAIR      61  59  94 CALM      30.03R
GORDONSVILLE*  FAIR      59  58  94 CALM      30.02R
WARRENTON*     FAIR      60  54  80 CALM      30.01R

$$

VAZ055>057-241300-
NORTH AND CENTRAL PIEDMONT

CITY           SKY/WX    TMP DP  RH WIND       PRES   REMARKS
FREDERICKSBRG* FAIR      63  61  94 CALM      30.00R
STAFFORD*      FAIR      61  56  84 CALM      30.05R

$$

NCZ024-NYZ072-PAZ021-071-VAZ022-071-241300-
OTHER REGIONAL OBSERVATIONS

CITY           SKY/WX    TMP DP  RH WIND       PRES   REMARKS
NEW YORK CITY  LGT RAIN  59  56  89 VRB3      29.93R FOG
PHILADELPHIA   PTSUNNY   61  54  77 NW5       29.94R
PITTSBURGH     SUNNY     55  49  80 SE3       30.08R
ROANOKE        FAIR      59  53  80 N3        30.13R
RICHMOND       PTSUNNY   58  55  90 W7        30.01R
RALEIGH        MOSUNNY   58  55  90 W6        30.10R

$$

ANZ530>537-241300-
MARINE OBSERVATIONS

STATION/POSITION TIME  TEMP    WIND        PRES
                       AIR SEA DIR/SP/G
                 (UTC) (F)     (DEG/KT/KT) (MB)
THOMAS PT LIGHT  1200   62 61  290/ 15/ 16 1015.4R
BALT KEY BRIDGE  1100   60     270/  8/  9 1013.5R
COVE POINT       1100   60     300/ 11/ 16 1014.4R
LEWISETTA        1100   59 63  290/  6/  7 1014.2R
SOLOMONS ISLAND  1100   59 62  290/  4/  8   N/A
PINEY POINT      1100          310/  7/  8   N/A

$$





USA.gov is the U.S. government's official web portal to all federal, state and local government web resources and services.